Lapse_Rate
5.4 5.5 5.6 5.7 5.8 5.8 5.9 6.0 6.0 6.0 6.2 6.2 6.3 6.3 6.2 5.6 5.4 5.6 5.8 6.0 5.9 6.0 6.1 6.2 5.9 6.3 6.3 6.5 6.8 6.6 6.7 6.6 6.7 6.5 6.4 5.8 5.4 5.2 5.4 5.8 5.6 5.7 6.0 6.3 6.7
5.6 5.5 5.6 5.6 5.6 5.7 5.9 6.0 6.1 6.0 6.2 6.1 6.2 6.1 6.2 5.7 5.6 5.8 6.0 6.0 6.2 6.2 6.0 6.1 6.2 6.2 6.4 6.7 6.9 6.7 6.4 6.3 6.5 6.6 6.8 6.2 5.8 6.0 5.8 5.4 5.7 5.7 5.8 6.2 6.3
5.6 5.5 5.6 5.5 5.6 5.6 5.7 5.9 6.1 6.1 6.2 6.0 6.2 6.2 6.2 5.8 5.9 6.0 6.1 5.9 5.9 5.9 5.7 5.8 5.8 6.4 6.7 6.6 6.8 6.5 6.3 6.7 6.6 6.6 6.6 6.3 6.1 6.0 5.7 5.6 5.8 5.8 6.0 6.0 5.9
5.6 5.5 5.5 5.5 5.6 5.6 5.7 5.8 5.9 6.0 6.1 6.2 6.1 6.1 6.2 5.9 6.0 6.0 6.5 6.1 6.1 6.1 5.7 6.3 6.4 6.2 6.6 6.7 7.1 6.6 6.5 6.8 6.6 6.6 6.5 6.4 6.4 6.0 5.8 5.8 6.0 5.5 5.3 5.7 5.9
5.7 5.6 5.6 5.6 5.6 5.6 5.6 5.7 5.8 6.0 6.1 6.2 6.1 6.0 5.8 5.6 5.9 6.1 6.1 6.3 6.4 6.1 5.9 6.5 6.4 6.5 6.4 6.5 6.7 6.5 6.4 6.9 6.7 6.6 6.7 6.6 6.3 6.0 6.0 5.8 5.7 5.2 5.4 5.6 5.8
5.8 5.7 5.7 5.7 5.6 5.7 5.7 5.7 5.7 5.9 6.0 6.1 6.0 6.0 5.6 5.5 5.8 5.9 6.1 5.9 6.5 6.4 6.2 6.9 6.4 6.0 6.7 6.9 6.5 6.4 6.4 6.7 6.6 6.8 6.6 6.5 6.4 6.1 6.1 6.0 6.0 5.2 5.4 5.5 5.6
5.8 5.8 5.7 5.7 5.7 5.8 5.8 5.8 5.8 5.8 6.0 6.1 6.0 5.8 5.8 5.7 5.8 5.7 6.0 5.8 5.8 6.0 6.1 7.0 6.9 6.5 6.5 6.4 6.2 6.4 6.1 5.9 6.3 6.4 6.5 6.3 6.2 6.3 5.9 6.0 5.9 5.5 5.3 5.2 5.2
5.8 5.8 5.7 5.7 5.8 5.9 5.9 5.9 5.9 5.9 5.9 6.0 5.9 5.8 5.9 5.8 5.7 5.7 5.6 5.7 6.0 5.9 6.2 6.1 6.6 6.6 6.2 6.2 6.0 6.0 6.1 6.2 6.2 6.3 6.4 6.3 6.4 6.2 6.0 6.3 6.2 5.8 5.2 5.2 5.2
5.9 5.8 5.7 5.7 5.8 5.9 6.0 6.0 6.0 6.0 5.9 5.9 5.9 5.7 5.7 5.9 5.8 5.5 5.6 5.4 5.9 6.2 6.1 6.4 6.5 6.8 6.9 6.3 6.3 6.4 6.3 6.5 6.4 6.4 6.5 6.3 6.3 6.2 6.1 6.3 6.2 6.0 5.6 5.5 5.3
5.8 5.9 5.8 5.7 5.8 5.9 5.9 5.9 6.0 6.0 6.0 5.9 5.9 5.7 5.8 5.8 6.1 5.6 5.6 5.7 5.8 6.3 6.5 6.5 6.6 7.0 7.0 6.8 6.8 6.6 6.7 6.9 6.8 7.0 6.5 6.6 6.6 6.7 6.5 6.1 6.2 6.3 5.9 5.6 5.4
5.8 5.8 5.8 5.8 5.7 5.7 5.8 5.9 5.9 6.1 6.1 6.2 6.0 5.9 6.0 6.1 6.2 5.9 5.7 5.9 6.1 6.1 6.5 6.5 6.8 7.0 7.1 7.2 7.0 7.6 7.4 7.1 7.2 7.3 7.1 6.8 6.9 6.6 6.6 6.4 6.2 6.3 6.2 6.1 5.7
6.0 5.9 5.9 5.7 5.6 5.5 5.8 5.8 6.1 6.3 6.1 6.1 6.1 5.9 5.9 6.1 6.4 6.3 6.0 6.0 6.1 6.1 6.2 6.9 6.8 6.7 7.6 7.8 7.6 8.0 7.9 7.8 7.4 7.3 7.4 7.3 7.2 7.0 6.8 6.5 6.2 6.1 6.3 6.2 5.9
6.1 6.2 6.1 5.9 5.6 5.4 5.9 5.9 6.2 6.3 6.3 6.1 6.2 6.0 5.9 6.1 6.1 6.5 6.5 6.3 6.2 6.2 6.3 6.8 7.6 6.9 6.9 7.6 7.9 8.0 8.1 8.1 7.8 7.9 7.5 7.6 7.4 7.5 7.4 6.9 6.3 6.2 6.0 6.0 6.1
6.2 6.3 6.3 6.1 5.9 5.8 6.0 6.2 6.5 6.4 6.3 6.6 6.6 6.2 6.3 6.3 6.3 6.3 6.5 6.5 6.4 6.5 6.7 7.2 7.7 7.4 7.3 7.5 8.0 8.0 7.4 7.9 8.1 7.9 7.4 7.4 7.7 8.1 7.9 7.6 6.9 6.4 6.2 6.2 6.3
6.2 6.1 6.2 6.3 6.2 6.1 6.2 6.3 6.4 6.3 5.5 6.9 6.7 6.6 6.7 6.6 6.6 6.6 6.5 6.5 6.7 6.6 6.8 7.2 7.3 7.4 7.3 7.3 7.7 8.0 8.0 7.5 7.4 7.6 7.4 7.2 6.9 7.2 7.8 7.4 7.7 7.3 6.8 6.1 6.1
6.2 6.2 6.2 6.3 6.2 6.1 6.2 6.3 6.4 6.4 6.4 7.1 6.9 6.8 6.7 6.8 6.9 6.9 6.9 6.7 6.6 6.5 6.8 7.0 7.1 7.3 7.3 7.4 7.5 7.8 7.9 7.7 7.4 7.2 6.7 6.5 6.2 6.1 5.8 6.0 6.4 6.6 6.7 6.1 6.0
6.0 6.2 6.2 6.3 6.2 6.4 6.2 6.1 6.2 6.5 7.4 7.1 7.1 7.2 7.1 7.0 7.0 7.1 7.2 7.1 6.8 6.8 7.1 7.1 7.1 7.4 7.5 7.6 7.5 7.5 7.6 7.3 6.4 5.8 5.5 6.2 5.7 4.6 5.5 6.1 7.1 7.0 6.5 6.1 6.0
6.3 6.2 6.2 6.3 6.3 6.4 6.2 6.1 6.4 7.0 7.1 7.2 7.4 7.4 7.5 7.3 7.3 7.3 7.2 7.1 7.0 7.1 7.5 7.5 7.4 7.7 7.5 7.7 7.6 7.5 7.5 7.3 5.7 4.8 5.5 5.6 5.0 5.1 5.4 6.3 6.7 6.4 6.2 6.1 5.7
5.9 6.0 6.1 6.3 6.1 6.1 6.2 6.1 6.9 6.8 6.8 7.2 7.5 7.6 7.7 7.8 7.6 7.4 7.4 7.5 7.4 7.5 7.6 7.5 7.6 8.1 7.9 7.8 7.7 7.5 7.5 7.3 7.1 5.8 5.4 5.1 4.7 4.9 5.2 5.6 6.0 5.9 5.9 5.9 5.8
5.8 5.6 5.7 5.9 5.9 6.1 5.9 6.2 6.6 6.7 6.9 7.2 7.5 7.6 7.9 8.1 7.9 7.9 7.8 7.7 7.7 7.8 7.7 7.8 7.7 8.0 7.9 7.6 7.5 7.5 7.4 7.4 7.3 5.1 4.9 5.0 4.9 4.2 5.0 5.1 5.6 5.4 5.5 5.7 6.0
5.5 5.4 5.8 6.2 6.4 6.4 6.3 6.7 7.0 7.1 7.2 7.4 7.5 7.8 8.1 8.4 8.2 8.0 8.2 8.1 8.1 8.1 8.0 8.1 8.2 8.0 8.1 8.0 8.1 7.8 7.7 7.5 7.5 6.8 5.1 4.3 5.1 4.8 5.1 5.3 5.5 5.7 5.8 5.8 5.7
5.5 5.8 5.9 6.4 6.4 6.6 6.9 6.9 7.2 7.3 7.7 7.9 7.8 7.9 8.3 8.6 8.6 8.2 8.4 8.8 8.6 8.5 8.5 8.6 8.7 8.6 8.1 7.9 8.0 8.2 8.0 7.9 8.0 7.0 6.5 6.2 5.4 5.5 5.6 5.8 6.0 6.0 5.7 5.7 5.9
5.7 6.1 6.2 6.4 6.5 6.7 6.7 6.8 6.9 7.2 7.3 8.3 8.5 8.4 8.3 8.4 8.4 8.6 8.5 9.0 8.9 8.8 8.8 9.0 9.0 8.7 7.9 7.9 7.7 7.8 7.9 8.0 8.1 7.7 7.0 6.4 5.7 5.7 5.8 5.9 6.0 6.2 6.3 6.4 6.5
5.7 5.9 6.3 6.3 6.5 6.6 6.8 7.2 7.1 7.3 7.4 7.9 8.6 8.9 8.4 8.5 8.4 8.6 8.8 8.8 8.9 9.1 8.9 9.0 9.0 8.9 8.6 8.3 7.9 7.6 7.5 7.5 7.7 7.9 7.6 7.1 6.5 5.9 6.3 6.5 6.6 6.7 6.7 6.5 6.4
5.9 6.1 6.4 6.3 6.9 7.3 7.1 7.0 7.1 7.3 7.7 7.9 8.3 9.2 8.7 8.4 8.5 8.6 9.0 8.7 8.7 9.0 8.9 8.7 8.6 8.5 8.4 8.1 7.6 7.3 7.2 7.3 7.4 7.5 7.7 7.5 7.0 6.4 6.5 6.6 6.7 6.9 7.0 7.0 7.0
5.9 5.9 6.2 6.8 7.5 7.7 7.6 7.4 7.5 7.5 7.9 8.2 8.4 9.2 8.9 9.0 9.1 9.0 9.1 8.8 8.9 8.8 8.9 8.4 7.9 7.7 7.3 7.3 7.2 7.1 7.1 7.0 7.1 7.1 7.2 7.3 6.7 6.4 6.4 6.5 6.6 6.7 6.7 6.6 6.6
5.7 5.7 6.1 7.0 7.8 8.0 8.2 8.0 7.9 7.9 8.2 8.5 8.8 9.0 9.3 9.1 9.0 8.8 8.9 8.9 8.9 8.7 8.5 8.2 8.1 7.7 7.3 7.1 7.0 6.8 6.8 6.9 7.0 7.2 7.2 7.3 7.3 6.7 6.8 6.9 6.9 6.9 6.8 6.7 6.8
Wind_Speed
19 18 18 18 18 18 17 16 17 17 17 16 16 17 15 15 14 2 1 5 5 16 9 8 4 6 3 4 2 2 4 3 5 7 5 8 5 7 6 8 2 3 5 10 15
20 20 18 18 18 17 17 17 17 17 17 16 16 17 14 13 2 2 3 16 15 15 6 6 4 5 3 2 2 4 3 2 4 6 8 10 9 6 6 6 4 10 14 15 14
21 20 20 18 18 18 18 18 17 18 17 16 15 15 13 9 1 2 13 25 19 10 5 3 4 1 4 1 4 3 2 5 2 7 13 11 6 2 13 2 5 18 17 14 12
21 20 20 19 19 19 19 19 18 18 16 15 14 14 14 1 3 4 20 16 13 7 5 2 0 3 3 3 3 3 4 3 1 9 10 12 8 5 4 2 14 19 18 14 13
21 21 21 20 20 19 19 20 20 19 17 14 13 11 2 1 2 12 18 11 5 7 4 3 3 2 3 4 1 6 4 5 8 9 12 11 6 6 1 13 16 16 15 14 10
21 22 22 22 22 21 20 20 20 19 16 13 11 10 1 3 3 20 13 7 3 5 4 2 3 2 3 3 4 6 6 8 7 9 7 8 5 5 7 14 16 16 14 11 12
23 23 23 23 23 22 21 20 21 19 16 10 8 3 1 3 7 12 11 6 5 6 5 6 4 1 5 1 7 4 2 3 4 4 3 9 2 3 14 16 17 14 12 11 11
23 23 24 24 24 23 23 22 22 18 12 6 4 2 4 3 12 9 3 3 6 7 3 3 4 3 2 3 2 4 4 2 2 4 5 4 4 6 15 17 15 14 11 10 11
24 24 25 25 24 24 25 22 18 5 3 4 0 2 3 1 1 5 6 4 5 4 4 5 3 3 3 5 3 3 2 2 3 5 5 2 1 7 11 14 13 12 12 12 11
24 25 25 25 24 24 24 17 2 6 1 2 2 3 2 2 3 3 4 3 0 5 2 4 4 3 3 4 5 4 2 2 5 6 4 5 3 11 11 11 13 12 11 10 8
26 27 27 26 25 22 10 3 4 4 2 4 3 2 4 5 1 4 4 5 2 5 3 3 4 4 7 6 5 4 3 3 4 7 4 6 5 12 13 9 10 9 9 9 11
27 27 28 28 26 19 1 6 7 3 5 3 5 6 5 2 3 2 4 3 3 2 2 5 3 3 6 4 6 4 3 5 2 5 4 5 6 13 15 15 13 13 12 10 5
27 27 29 29 29 3 2 3 3 2 3 6 5 4 4 7 5 6 6 3 3 1 3 4 4 1 4 4 5 2 6 4 3 5 3 5 2 9 11 6 7 10 7 6 9
26 25 27 35 2 4 3 1 7 5 5 6 4 6 4 4 2 4 4 5 2 4 5 4 4 2 5 2 3 3 2 5 8 4 3 2 3 3 10 15 14 9 9 7 7
27 24 24 12 4 1 1 7 0 3 2 3 3 1 2 8 3 2 2 4 5 3 4 5 5 3 4 4 5 3 4 4 4 5 4 4 3 5 3 11 15 14 12 6 6
29 24 19 2 1 6 8 6 4 6 5 1 4 5 5 2 2 3 3 6 2 4 2 3 4 1 1 3 4 5 6 8 5 3 2 3 4 3 3 5 7 6 8 8 8
33 29 9 2 3 7 5 4 5 4 4 2 3 4 3 4 1 2 3 3 5 4 2 4 4 4 1 3 4 7 6 3 3 3 5 4 4 1 9 9 12 11 11 10 7
36 24 6 4 5 6 3 6 4 3 5 4 3 3 7 5 3 2 4 2 1 4 4 4 3 2 4 3 5 3 6 6 5 4 3 4 4 6 5 8 9 10 11 10 8
28 3 1 3 9 2 5 3 7 5 4 6 3 3 2 2 5 3 6 6 6 7 5 4 3 3 4 2 3 3 2 4 7 3 3 2 2 3 10 10 9 10 10 6 3
4 4 4 4 6 4 5 5 3 4 4 4 1 1 5 4 5 5 6 3 5 2 2 6 4 2 2 2 6 3 5 3 3 4 2 3 3 4 8 8 8 8 6 5 7
3 4 4 4 2 5 4 5 5 6 3 1 1 4 3 3 6 2 7 1 1 3 5 4 3 3 4 6 1 4 3 7 6 3 5 3 2 5 2 3 7 7 7 7 9
2 3 3 2 4 1 3 5 4 5 1 5 3 7 5 4 3 5 6 2 4 5 4 1 5 4 2 2 2 2 3 4 5 3 1 3 2 3 4 5 8 9 9 9 11
2 2 3 4 3 3 4 4 5 5 7 4 6 7 3 5 3 3 3 2 1 2 7 6 3 4 6 6 4 5 3 4 4 3 2 5 4 2 5 7 8 11 10 10 11
2 3 4 4 0 2 3 5 4 4 6 6 4 5 4 2 2 6 4 5 3 4 10 9 4 5 7 5 3 2 4 3 4 3 6 4 8 4 4 7 6 8 8 8 8
4 1 2 3 3 3 1 2 4 4 3 5 4 8 7 4 3 2 3 4 4 3 5 5 4 4 4 3 2 2 2 5 2 4 2 7 5 6 5 6 4 5 8 11 12
2 3 4 2 3 2 3 3 3 6 2 5 6 9 7 9 9 13 8 3 4 6 4 4 2 3 3 5 4 3 7 5 5 5 7 14 6 4 5 5 5 6 6 6 6
2 1 3 4 5 2 3 5 6 5 4 5 4 3 4 1 7 6 4 5 6 5 3 4 6 3 2 4 4 3 5 2 3 4 8 10 5 5 4 5 4 4 5 5 6
Wind_Direction
353 352 349 344 340 339 339 333 327 326 327 327 321 314 322 331 319 127 46 150 188 197 189 128 89 125 137 86 80 93 68 165 160 162 147 133 118 154 101 130 94 63 118 130 133
353 351 347 341 338 335 334 331 326 323 326 325 321 314 324 339 310 108 235 144 173 165 190 192 111 146 59 38 35 68 84 204 181 158 156 143 126 143 117 149 59 83 100 124 137
350 349 348 341 337 332 330 327 325 321 325 324 320 315 324 328 321 136 178 156 199 193 56 67 112 80 71 21 16 42 64 352 354 126 136 137 113 76 136 214 176 143 143 149 147
352 349 344 340 337 331 329 324 324 319 322 321 318 317 320 273 106 190 180 173 169 173 105 146 359 111 80 57 50 55 319 252 298 129 133 146 121 111 141 227 139 142 149 154 162
352 349 344 340 334 329 327 321 320 317 317 319 315 323 330 54 245 168 182 169 141 138 160 213 34 59 85 75 88 18 335 334 97 124 131 132 131 141 56 119 127 138 154 161 159
350 348 343 340 335 330 326 321 318 314 312 314 310 317 2 89 120 158 166 167 188 168 165 247 223 168 83 79 67 187 240 315 66 142 134 120 132 105 144 134 140 154 168 170 167
349 345 340 337 334 330 325 321 314 309 304 305 301 304 30 160 128 164 154 185 180 187 169 210 246 103 122 100 144 160 83 151 59 94 99 109 61 110 149 148 153 170 178 172 177
347 343 339 334 331 328 323 319 309 302 288 278 273 301 235 343 136 147 191 189 201 228 259 216 182 171 167 153 68 111 73 117 275 104 162 93 238 135 152 151 168 174 186 178 193
345 341 336 332 330 326 321 318 308 287 178 150 352 6 281 284 238 175 162 183 180 219 230 234 174 170 114 125 34 8 186 179 154 190 138 103 191 156 164 159 171 183 186 188 194
333 331 332 333 332 327 320 311 123 111 185 210 251 23 325 311 243 186 186 139 88 330 87 64 45 75 57 104 207 210 201 197 187 201 155 159 188 162 168 176 176 185 197 200 186
333 331 335 335 332 326 334 94 17 5 47 187 178 245 273 275 275 217 138 109 117 52 53 24 65 212 222 209 200 168 175 217 220 166 131 181 152 180 181 176 185 189 187 196 209
334 334 337 334 330 326 153 92 137 196 321 232 245 273 266 270 9 300 117 112 82 114 16 16 242 220 268 219 206 255 177 247 314 139 129 168 200 185 190 198 190 188 197 199 166
334 335 337 333 324 350 339 118 65 90 106 297 206 210 211 137 194 252 130 110 124 137 173 178 226 279 230 81 116 108 162 166 163 109 57 111 313 188 207 190 202 205 194 185 185
333 334 338 331 43 306 307 358 319 187 59 280 235 263 133 130 265 209 191 130 76 192 173 226 276 144 126 78 127 104 139 110 125 98 183 69 263 255 206 202 200 202 191 197 187
330 333 334 334 295 237 113 332 311 57 12 243 206 11 9 145 186 216 194 64 167 189 97 256 349 40 130 172 166 179 66 63 96 96 93 358 80 306 156 208 211 198 201 174 170
325 329 331 95 232 245 323 330 46 43 255 321 180 161 112 345 176 139 121 57 105 121 14 257 295 3 115 69 67 137 63 40 58 88 47 338 138 304 347 299 260 194 177 146 136
326 323 301 226 224 333 323 61 49 146 318 322 228 147 128 156 168 120 113 84 154 101 322 354 318 310 119 82 37 70 60 359 355 12 205 307 73 45 318 318 242 177 146 139 135
326 322 180 217 295 349 56 57 173 240 269 313 15 29 168 156 200 112 91 138 64 95 99 138 336 356 349 104 162 62 143 151 209 189 217 356 4 311 346 33 50 103 116 118 99
326 345 110 277 230 347 81 93 207 206 294 329 328 132 222 282 167 118 171 194 192 182 135 139 266 313 54 61 99 168 84 166 106 4 74 251 118 91 24 43 52 76 89 98 178
337 350 340 355 143 64 79 201 209 220 293 23 305 130 175 202 165 129 173 194 180 179 138 199 100 360 335 77 35 114 145 68 16 131 133 20 66 344 356 12 38 42 55 40 47
23 51 310 51 40 51 145 224 253 235 272 348 305 322 240 208 146 133 198 229 169 56 89 128 97 270 46 22 231 1 39 53 109 103 144 130 262 1 41 31 77 76 74 68 63
12 53 294 42 51 17 154 196 222 266 77 264 193 209 237 150 123 146 189 204 331 151 90 132 120 81 125 321 270 99 108 127 119 207 72 124 265 358 44 22 75 66 70 66 66
51 264 320 83 87 329 283 266 229 232 232 227 225 192 177 180 99 155 150 27 204 118 160 183 24 72 356 352 5 43 36 109 105 100 190 128 222 98 55 51 45 78 64 58 52
44 18 333 48 45 124 325 264 263 255 244 197 245 135 125 122 82 181 135 34 33 70 68 86 86 143 181 183 173 8 357 85 108 109 165 189 150 150 90 78 47 60 57 55 45
35 335 185 335 326 334 334 281 307 314 251 196 246 192 156 134 89 101 112 108 40 15 47 89 96 86 70 26 122 91 349 339 84 141 138 169 122 170 154 122 68 60 42 33 22
61 30 355 274 284 314 17 351 292 303 220 284 243 144 156 167 177 180 146 145 157 33 68 20 141 122 56 6 24 74 12 50 60 110 69 117 108 148 115 90 72 60 51 37 18
321 339 103 315 341 45 323 302 281 325 289 230 236 119 76 295 110 87 66 88 106 107 86 76 128 97 192 349 34 9 341 359 65 33 144 149 184 142 141 137 144 101 59 29 7